UAE148 LFPG-HECA

Flight info

Callsign UAE148
Flight time N/A
Altitude 39000
Route BUBLI DCT LUVAL DCT SHARA DCT DEVDI DCT RIPUS DCT RESIA DCT IXONA DCT SAL DCT UVODI DCT AMUGO DCT VAKSU DCT KOFER DCT PINDO DCT PIKOS DCT KEA/N0481F410 UN132 KUPIS DCT LAPSO UN132 KUMBI L612 BLT
Aircraft A388/J-SADE2E3FGHIJ3J4J5M1RWXY/LB1D1

Departure

Time 2026-05-05 18:47
Airport Charles de Gaulle International Airport (LFPG)

Arrival

Time N/A
Airport Cairo International Airport (HECA)
Time Latitude Longitude Altitude Speed Heading
2026-05-05 17:49 49.01252 2.53837 355 ft 0 kts 89°
2026-05-05 17:49 49.01253 2.53838 359 ft 0 kts 89°
2026-05-05 17:54 49.01253 2.53837 359 ft 0 kts 89°
2026-05-05 18:13 49.01253 2.53836 367 ft 2 kts 89°
2026-05-05 18:13 49.01252 2.53811 361 ft 2 kts 88°
2026-05-05 18:13 49.01251 2.53786 364 ft 2 kts 85°
2026-05-05 18:13 49.01248 2.53761 361 ft 2 kts 81°
2026-05-05 18:14 49.01246 2.53736 364 ft 2 kts 81°
2026-05-05 18:14 49.01244 2.53711 363 ft 2 kts 89°
2026-05-05 18:14 49.01250 2.53692 363 ft 1 kts 133°
2026-05-05 18:14 49.01250 2.53691 363 ft 0 kts 135°
2026-05-05 18:17 49.01248 2.53696 364 ft 3 kts 135°
2026-05-05 18:17 49.01222 2.53735 366 ft 8 kts 135°
2026-05-05 18:18 49.01182 2.53821 367 ft 12 kts 109°
2026-05-05 18:18 49.01171 2.53956 365 ft 15 kts 87°
2026-05-05 18:18 49.01182 2.54091 362 ft 13 kts 81°
2026-05-05 18:18 49.01194 2.54249 355 ft 17 kts 84°
2026-05-05 18:19 49.01204 2.54429 363 ft 16 kts 85°
2026-05-05 18:19 49.01215 2.54616 365 ft 18 kts 85°
2026-05-05 18:19 49.01219 2.54704 364 ft 0 kts 85°
2026-05-05 18:21 49.01220 2.54710 364 ft 3 kts 85°
2026-05-05 18:21 49.01223 2.54764 366 ft 8 kts 85°
2026-05-05 18:21 49.01228 2.54870 366 ft 12 kts 85°
2026-05-05 18:22 49.01205 2.54990 369 ft 12 kts 144°
2026-05-05 18:22 49.01119 2.55039 367 ft 15 kts 164°
2026-05-05 18:22 49.01009 2.55084 369 ft 18 kts 165°
2026-05-05 18:22 49.00882 2.55139 363 ft 20 kts 163°
2026-05-05 18:23 49.00749 2.55198 368 ft 21 kts 164°
2026-05-05 18:23 49.00603 2.55260 365 ft 21 kts 164°
2026-05-05 18:23 49.00496 2.55306 363 ft 10 kts 164°
2026-05-05 18:23 49.00418 2.55339 364 ft 14 kts 164°
2026-05-05 18:24 49.00348 2.55369 367 ft 11 kts 164°
2026-05-05 18:24 49.00261 2.55406 362 ft 15 kts 163°
2026-05-05 18:24 49.00167 2.55448 366 ft 7 kts 163°
2026-05-05 18:24 49.00104 2.55477 364 ft 12 kts 163°
2026-05-05 18:25 49.00022 2.55497 363 ft 11 kts 201°
2026-05-05 18:25 48.99998 2.55478 367 ft 7 kts 214°
2026-05-05 18:25 48.99983 2.55423 365 ft 6 kts 268°
2026-05-05 18:25 48.99979 2.55334 362 ft 10 kts 266°
2026-05-05 18:26 48.99971 2.55241 365 ft 7 kts 243°
2026-05-05 18:26 48.99940 2.55196 365 ft 5 kts 179°
2026-05-05 18:26 48.99890 2.55206 364 ft 9 kts 163°
2026-05-05 18:26 48.99820 2.55242 363 ft 12 kts 161°
2026-05-05 18:27 48.99736 2.55308 366 ft 14 kts 135°
2026-05-05 18:27 48.99700 2.55383 368 ft 0 kts 124°
2026-05-05 18:45 48.99699 2.55383 368 ft 0 kts 124°
2026-05-05 18:45 48.99695 2.55393 368 ft 4 kts 125°
2026-05-05 18:45 48.99668 2.55446 368 ft 9 kts 131°
2026-05-05 18:46 48.99612 2.55531 363 ft 14 kts 135°
2026-05-05 18:46 48.99592 2.55649 359 ft 7 kts 83°
2026-05-05 18:46 48.99598 2.55742 364 ft 11 kts 85°
2026-05-05 18:46 48.99619 2.56179 361 ft 83 kts 86°
2026-05-05 18:47 48.99686 2.57408 364 ft 147 kts 85°
2026-05-05 18:47 48.99781 2.59151 455 ft 176 kts 84°
2026-05-05 18:47 48.99924 2.61055 813 ft 183 kts 82°
2026-05-05 18:47 49.00084 2.62988 1245 ft 186 kts 83°
2026-05-05 18:48 49.00221 2.64912 1727 ft 184 kts 84°
2026-05-05 18:48 49.00342 2.66838 2274 ft 179 kts 85°
2026-05-05 18:48 49.00440 2.68682 2895 ft 172 kts 85°
2026-05-05 18:48 49.00524 2.70515 3442 ft 175 kts 85°
2026-05-05 18:49 49.00596 2.72364 4080 ft 176 kts 87°
2026-05-05 18:49 49.00679 2.74171 4884 ft 163 kts 84°
2026-05-05 18:49 49.00773 2.75924 5399 ft 175 kts 87°
2026-05-05 18:49 49.00821 2.77884 5733 ft 192 kts 91°
2026-05-05 18:50 49.00615 2.79954 5908 ft 209 kts 101°
2026-05-05 18:50 49.00330 2.82227 6043 ft 225 kts 100°
2026-05-05 18:50 49.00054 2.84658 6148 ft 238 kts 99°
2026-05-05 18:50 48.99775 2.87233 6355 ft 262 kts 99°
2026-05-05 18:51 48.99472 2.90048 6821 ft 276 kts 99°
2026-05-05 18:51 48.99155 2.92979 7570 ft 280 kts 99°
2026-05-05 18:51 48.98835 2.95927 8456 ft 282 kts 99°
2026-05-05 18:51 48.98296 2.98817 9239 ft 286 kts 114°
2026-05-05 18:52 48.97459 3.01575 10071 ft 289 kts 115°
2026-05-05 18:52 48.96579 3.04421 10521 ft 307 kts 115°
2026-05-05 18:52 48.95642 3.07468 10735 ft 329 kts 115°
2026-05-05 18:52 48.94664 3.10671 11136 ft 342 kts 115°
2026-05-05 18:53 48.93648 3.14014 11830 ft 345 kts 115°
2026-05-05 18:53 48.92654 3.17286 12500 ft 349 kts 115°
2026-05-05 18:53 48.91716 3.20724 13147 ft 353 kts 111°
2026-05-05 18:53 48.90858 3.24292 13808 ft 356 kts 110°
2026-05-05 18:54 48.90020 3.27844 14467 ft 360 kts 110°
2026-05-05 18:54 48.89158 3.31448 15103 ft 363 kts 110°
2026-05-05 18:54 48.88273 3.35080 15723 ft 367 kts 110°
2026-05-05 18:54 48.87370 3.38737 16338 ft 370 kts 110°
2026-05-05 18:55 48.86466 3.42380 16918 ft 373 kts 111°
2026-05-05 18:55 48.85552 3.46048 17483 ft 376 kts 111°
2026-05-05 18:55 48.84614 3.49801 18029 ft 380 kts 111°
2026-05-05 18:55 48.83660 3.53608 18583 ft 383 kts 111°
2026-05-05 18:56 48.82699 3.57441 18925 ft 387 kts 111°
2026-05-05 18:56 48.81749 3.61219 19002 ft 387 kts 111°
2026-05-05 18:56 48.80788 3.65035 18999 ft 386 kts 111°
2026-05-05 18:56 48.79812 3.68906 18999 ft 386 kts 111°
2026-05-05 18:57 48.78846 3.72733 19031 ft 387 kts 111°
2026-05-05 18:57 48.77892 3.76501 19350 ft 389 kts 111°
2026-05-05 18:57 48.76901 3.80414 19919 ft 391 kts 111°
2026-05-05 18:57 48.75936 3.84212 20411 ft 393 kts 111°
2026-05-05 18:58 48.74938 3.88139 20901 ft 396 kts 111°
2026-05-05 18:58 48.73938 3.92062 21378 ft 399 kts 111°
2026-05-05 18:58 48.72944 3.95958 21825 ft 402 kts 111°
2026-05-05 18:58 48.71924 3.99949 22289 ft 405 kts 111°
2026-05-05 18:59 48.70910 4.03909 22724 ft 407 kts 111°
2026-05-05 18:59 48.69874 4.07945 23152 ft 410 kts 111°
2026-05-05 18:59 48.68842 4.11962 23577 ft 413 kts 111°
2026-05-05 18:59 48.67798 4.16019 24002 ft 416 kts 111°
2026-05-05 19:00 48.66739 4.20125 24426 ft 418 kts 111°
2026-05-05 19:00 48.65686 4.24199 24833 ft 421 kts 111°
2026-05-05 19:00 48.64622 4.28313 25247 ft 424 kts 111°
2026-05-05 19:00 48.63535 4.32504 25665 ft 427 kts 111°
2026-05-05 19:01 48.62442 4.36712 26104 ft 429 kts 111°
2026-05-05 19:01 48.61347 4.40919 26559 ft 432 kts 111°
2026-05-05 19:01 48.60258 4.45097 26991 ft 435 kts 111°
2026-05-05 19:01 48.59130 4.49414 27441 ft 438 kts 111°
2026-05-05 19:02 48.58005 4.53715 27920 ft 441 kts 111°
2026-05-05 19:02 48.56873 4.58033 28349 ft 444 kts 111°
2026-05-05 19:02 48.55719 4.62423 28798 ft 447 kts 111°
2026-05-05 19:02 48.54569 4.66795 29235 ft 450 kts 111°
2026-05-05 19:03 48.53410 4.71190 29670 ft 453 kts 111°
2026-05-05 19:03 48.52233 4.75646 30115 ft 456 kts 112°
2026-05-05 19:03 48.51058 4.80084 30542 ft 460 kts 112°
2026-05-05 19:03 48.49871 4.84560 30958 ft 463 kts 112°
2026-05-05 19:04 48.48672 4.89071 31367 ft 466 kts 112°
2026-05-05 19:04 48.47468 4.93597 31772 ft 469 kts 112°
2026-05-05 19:04 48.46655 4.96643 32032 ft 471 kts 112°
2026-05-05 19:04 48.45425 5.01251 32426 ft 474 kts 112°
2026-05-05 19:05 48.44179 5.05906 32806 ft 477 kts 112°
2026-05-05 19:05 48.42913 5.10625 33032 ft 484 kts 112°
2026-05-05 19:05 48.41662 5.15281 33144 ft 493 kts 112°
2026-05-05 19:05 48.40334 5.20212 33240 ft 503 kts 112°
2026-05-05 19:06 48.39035 5.25028 33342 ft 512 kts 112°
2026-05-05 19:06 48.37679 5.30041 33462 ft 521 kts 112°
2026-05-05 19:06 48.36273 5.35232 33859 ft 524 kts 112°
2026-05-05 19:06 48.34902 5.40278 34410 ft 522 kts 112°
2026-05-05 19:07 48.33497 5.45443 34971 ft 519 kts 112°
2026-05-05 19:07 48.32138 5.50426 35010 ft 503 kts 112°
2026-05-05 19:07 48.30841 5.55172 35004 ft 489 kts 112°
2026-05-05 19:07 48.29544 5.59906 34996 ft 487 kts 112°
2026-05-05 19:08 48.26956 5.69329 35003 ft 491 kts 112°
2026-05-05 19:08 48.24350 5.78779 35004 ft 491 kts 112°
2026-05-05 19:09 48.21733 5.88229 35003 ft 491 kts 112°
2026-05-05 19:09 48.19097 5.97712 34986 ft 491 kts 112°
2026-05-05 19:10 48.16470 6.07123 35003 ft 491 kts 112°
2026-05-05 19:10 48.13819 6.16585 35001 ft 491 kts 113°
2026-05-05 19:11 48.11182 6.25958 35007 ft 491 kts 113°
2026-05-05 19:11 48.08503 6.35443 35001 ft 495 kts 113°
2026-05-05 19:12 48.05770 6.45081 35008 ft 509 kts 113°
2026-05-05 19:12 48.02982 6.54876 35001 ft 510 kts 113°
2026-05-05 19:13 48.00171 6.64710 35003 ft 509 kts 113°
2026-05-05 19:13 47.97377 6.74443 35003 ft 510 kts 113°
2026-05-05 19:14 47.94572 6.84177 35005 ft 510 kts 113°
2026-05-05 19:14 47.91738 6.93972 35003 ft 512 kts 113°
2026-05-05 19:15 47.88930 7.03639 34985 ft 511 kts 113°
2026-05-05 19:15 47.86093 7.13365 35006 ft 513 kts 114°
2026-05-05 19:16 47.83266 7.23020 35004 ft 507 kts 114°
2026-05-05 19:16 47.80430 7.32669 35003 ft 507 kts 114°
2026-05-05 19:17 47.77599 7.42264 35001 ft 507 kts 114°
2026-05-05 19:17 47.74707 7.51792 35008 ft 507 kts 117°
2026-05-05 19:18 47.70984 7.60739 34986 ft 508 kts 127°
2026-05-05 19:18 47.66756 7.69138 35003 ft 509 kts 126°
2026-05-05 19:19 47.62581 7.77554 35006 ft 509 kts 126°
2026-05-05 19:19 47.58366 7.86017 34999 ft 508 kts 127°
2026-05-05 19:20 47.54158 7.94429 35005 ft 508 kts 127°
2026-05-05 19:20 47.49972 8.02768 35008 ft 508 kts 127°
2026-05-05 19:21 47.45673 8.11306 34998 ft 510 kts 127°
2026-05-05 19:21 47.41442 8.19685 35001 ft 508 kts 127°
2026-05-05 19:22 47.37180 8.28099 35003 ft 510 kts 127°
2026-05-05 19:22 47.32980 8.36364 35007 ft 508 kts 127°
2026-05-05 19:23 47.28708 8.44746 34985 ft 509 kts 127°
2026-05-05 19:23 47.24432 8.53144 35003 ft 510 kts 126°
2026-05-05 19:24 47.20273 8.61592 34986 ft 510 kts 126°
2026-05-05 19:24 47.16121 8.70020 35004 ft 514 kts 126°
2026-05-05 19:25 47.11923 8.78476 35003 ft 512 kts 126°
2026-05-05 19:25 47.07699 8.86948 35006 ft 515 kts 126°
2026-05-05 19:26 47.04153 8.94041 35003 ft 519 kts 126°
2026-05-05 19:26 46.99859 9.02606 35002 ft 518 kts 126°
2026-05-05 19:27 46.95615 9.11046 34985 ft 515 kts 126°
2026-05-05 19:27 46.91353 9.19494 34986 ft 512 kts 127°
2026-05-05 19:28 46.87061 9.27976 35004 ft 523 kts 127°
2026-05-05 19:28 46.82752 9.36467 35009 ft 513 kts 127°
2026-05-05 19:29 46.78541 9.44738 35004 ft 515 kts 127°
2026-05-05 19:29 46.74203 9.53234 35009 ft 524 kts 127°
2026-05-05 19:30 46.69899 9.61637 35004 ft 521 kts 127°
2026-05-05 19:30 46.65538 9.70126 35003 ft 512 kts 127°
2026-05-05 19:31 46.61196 9.78553 35003 ft 518 kts 127°
2026-05-05 19:31 46.56812 9.87034 35003 ft 524 kts 127°
2026-05-05 19:32 46.52447 9.95454 35003 ft 524 kts 127°
2026-05-05 19:32 46.48027 10.03966 35010 ft 523 kts 126°
2026-05-05 19:33 46.44062 10.12837 35006 ft 522 kts 122°
2026-05-05 19:33 46.40177 10.21744 35003 ft 520 kts 122°
2026-05-05 19:34 46.36271 10.30636 35008 ft 523 kts 122°
2026-05-05 19:35 46.30453 10.43789 35005 ft 521 kts 123°
2026-05-05 19:35 46.26519 10.52642 35007 ft 517 kts 123°
2026-05-05 19:36 46.22600 10.61435 35004 ft 523 kts 123°
2026-05-05 19:36 46.18694 10.70173 34986 ft 523 kts 123°
2026-05-05 19:37 46.15391 10.77539 34986 ft 509 kts 123°
2026-05-05 19:37 46.11487 10.86222 35002 ft 523 kts 123°
2026-05-05 19:38 46.07558 10.94932 34986 ft 508 kts 123°
2026-05-05 19:38 46.03689 11.03485 35007 ft 515 kts 123°
2026-05-05 19:39 45.99773 11.12112 35003 ft 508 kts 123°
2026-05-05 19:39 45.95838 11.20757 35005 ft 519 kts 123°
2026-05-05 19:40 45.91874 11.29437 34986 ft 512 kts 123°
2026-05-05 19:40 45.87945 11.38016 35004 ft 510 kts 123°
2026-05-05 19:41 45.84003 11.46595 35007 ft 512 kts 123°
2026-05-05 19:41 45.80084 11.55100 35004 ft 515 kts 123°
2026-05-05 19:42 45.76159 11.63591 35011 ft 506 kts 123°
2026-05-05 19:42 45.72260 11.72001 35001 ft 506 kts 123°
2026-05-05 19:43 45.68421 11.80257 34985 ft 506 kts 124°
2026-05-05 19:43 45.64516 11.88632 35007 ft 506 kts 124°
2026-05-05 19:44 45.60638 11.96923 35003 ft 506 kts 124°
2026-05-05 19:44 45.56699 12.05319 34986 ft 506 kts 124°
2026-05-05 19:45 45.53338 12.12465 34984 ft 505 kts 124°
2026-05-05 19:45 45.49382 12.20851 35009 ft 506 kts 124°
2026-05-05 19:46 45.45403 12.29262 35001 ft 506 kts 124°
2026-05-05 19:46 45.41415 12.37667 34985 ft 506 kts 124°
2026-05-05 19:47 45.37478 12.45941 35010 ft 506 kts 124°
2026-05-05 19:47 45.33524 12.54225 34995 ft 505 kts 124°
2026-05-05 19:48 45.29573 12.62479 34986 ft 506 kts 124°
2026-05-05 19:48 45.25607 12.70742 35008 ft 505 kts 124°
2026-05-05 19:49 45.21653 12.78953 35005 ft 506 kts 124°
2026-05-05 19:49 45.17659 12.87226 35004 ft 506 kts 124°
2026-05-05 19:50 45.13691 12.95420 35006 ft 505 kts 124°
2026-05-05 19:50 45.09712 13.03614 35003 ft 506 kts 124°
2026-05-05 19:51 45.05725 13.11802 35007 ft 506 kts 124°
2026-05-05 19:51 45.01731 13.19978 34984 ft 505 kts 124°
2026-05-05 19:52 44.97757 13.28092 35010 ft 506 kts 125°
2026-05-05 19:52 44.93786 13.36176 35001 ft 505 kts 125°
2026-05-05 19:53 44.89706 13.44461 35003 ft 505 kts 125°
2026-05-05 19:53 44.85699 13.52585 34986 ft 505 kts 125°
2026-05-05 19:54 44.81477 13.60454 35005 ft 505 kts 128°
2026-05-05 19:54 44.77189 13.68327 35001 ft 506 kts 127°
2026-05-05 19:55 44.72917 13.76154 35008 ft 506 kts 128°
2026-05-05 19:55 44.68607 13.84000 35007 ft 506 kts 128°
2026-05-05 19:56 44.64311 13.91794 35005 ft 505 kts 128°
2026-05-05 19:56 44.60014 13.99567 35008 ft 505 kts 128°
2026-05-05 19:57 44.55694 14.07361 35007 ft 505 kts 128°
2026-05-05 19:57 44.51337 14.15201 35006 ft 506 kts 128°
2026-05-05 19:58 44.47013 14.22961 35008 ft 505 kts 128°
2026-05-05 19:58 44.42683 14.30710 35008 ft 506 kts 128°
2026-05-05 19:59 44.38307 14.38521 35009 ft 506 kts 128°
2026-05-05 19:59 44.33980 14.46222 35009 ft 506 kts 128°
2026-05-05 20:00 44.29619 14.53966 35008 ft 506 kts 128°
2026-05-05 20:00 44.25297 14.61617 35004 ft 505 kts 128°
2026-05-05 20:01 44.20916 14.69353 35003 ft 505 kts 128°
2026-05-05 20:01 44.16582 14.76986 35005 ft 505 kts 128°
2026-05-05 20:02 44.12206 14.84672 35006 ft 506 kts 128°
2026-05-05 20:02 44.07852 14.92300 34985 ft 505 kts 128°
2026-05-05 20:03 44.03482 14.99935 35010 ft 505 kts 128°
2026-05-05 20:03 43.99080 15.07605 35004 ft 506 kts 129°
2026-05-05 20:04 43.94696 15.15226 34999 ft 505 kts 129°
2026-05-05 20:04 43.90284 15.22799 35004 ft 505 kts 129°
2026-05-05 20:05 43.85811 15.30351 35002 ft 505 kts 129°
2026-05-05 20:05 43.81350 15.37882 34985 ft 505 kts 129°
2026-05-05 20:06 43.76892 15.45401 34986 ft 505 kts 129°
2026-05-05 20:06 43.72432 15.52905 35008 ft 506 kts 129°
2026-05-05 20:07 43.67967 15.60397 35000 ft 505 kts 129°
2026-05-05 20:07 43.63493 15.67883 35006 ft 506 kts 129°
2026-05-05 20:08 43.59019 15.75351 35003 ft 506 kts 130°
2026-05-05 20:08 43.54522 15.82839 35005 ft 506 kts 130°
2026-05-05 20:09 43.50732 15.89134 34998 ft 505 kts 130°
2026-05-05 20:09 43.46236 15.96584 34986 ft 505 kts 130°
2026-05-05 20:10 43.41735 16.04024 34985 ft 505 kts 130°
2026-05-05 20:10 43.37296 16.11342 35009 ft 506 kts 130°
2026-05-05 20:11 43.32758 16.18805 35010 ft 506 kts 130°
2026-05-05 20:11 43.28173 16.26326 35006 ft 505 kts 130°
2026-05-05 20:12 43.23670 16.33693 35003 ft 505 kts 130°
2026-05-05 20:12 43.19174 16.41030 34995 ft 505 kts 130°
2026-05-05 20:13 43.14657 16.48382 35005 ft 505 kts 130°
2026-05-05 20:13 43.10202 16.55765 35003 ft 505 kts 127°
2026-05-05 20:14 43.06062 16.63533 35009 ft 506 kts 126°
2026-05-05 20:14 43.01897 16.71324 35002 ft 506 kts 126°
2026-05-05 20:15 42.97741 16.79052 35003 ft 505 kts 126°
2026-05-05 20:15 42.93572 16.86777 34985 ft 508 kts 126°
2026-05-05 20:16 42.89383 16.94520 35003 ft 505 kts 127°
2026-05-05 20:16 42.85222 17.02192 35002 ft 505 kts 127°
2026-05-05 20:17 42.81034 17.09894 34986 ft 506 kts 127°
2026-05-05 20:17 42.76828 17.17608 35007 ft 506 kts 127°
2026-05-05 20:18 42.72631 17.25286 35002 ft 505 kts 127°
2026-05-05 20:18 42.68457 17.32902 35007 ft 506 kts 127°
2026-05-05 20:19 42.64236 17.40586 35008 ft 506 kts 127°
2026-05-05 20:19 42.60031 17.48219 35009 ft 506 kts 127°
2026-05-05 20:20 42.55819 17.55847 35004 ft 505 kts 127°
2026-05-05 20:20 42.51577 17.63510 35007 ft 505 kts 127°
2026-05-05 20:21 42.47383 17.71068 35004 ft 505 kts 127°
2026-05-05 20:21 42.43136 17.78703 35003 ft 507 kts 127°
2026-05-05 20:22 42.38889 17.86318 35009 ft 505 kts 127°
2026-05-05 20:22 42.34634 17.93929 35003 ft 505 kts 127°
2026-05-05 20:23 42.30398 18.01486 35005 ft 505 kts 127°
2026-05-05 20:23 42.26131 18.09080 35001 ft 505 kts 127°
2026-05-05 20:24 42.21826 18.16722 35009 ft 506 kts 127°
2026-05-05 20:24 42.17576 18.24247 35004 ft 506 kts 127°
2026-05-05 20:25 42.13318 18.31767 35008 ft 506 kts 127°
2026-05-05 20:25 42.09071 18.39249 35007 ft 505 kts 127°
2026-05-05 20:26 42.04816 18.46727 34986 ft 506 kts 127°
2026-05-05 20:26 42.00480 18.54184 35008 ft 505 kts 131°
2026-05-05 20:27 41.95869 18.61397 35004 ft 505 kts 130°
2026-05-05 20:27 41.91275 18.68639 35007 ft 505 kts 130°
2026-05-05 20:28 41.87564 18.74744 35009 ft 506 kts 129°
2026-05-05 20:28 41.82395 18.83294 35007 ft 505 kts 129°
2026-05-05 20:29 41.78707 18.89341 35005 ft 505 kts 129°
2026-05-05 20:29 41.74286 18.96557 34986 ft 505 kts 129°
2026-05-05 20:30 41.69849 19.03781 35003 ft 505 kts 129°
2026-05-05 20:30 41.65371 19.11053 35004 ft 505 kts 129°
2026-05-05 20:31 41.60954 19.18209 35004 ft 505 kts 129°
2026-05-05 20:31 41.56484 19.25435 35006 ft 505 kts 129°
2026-05-05 20:32 41.51949 19.32747 35007 ft 505 kts 130°
2026-05-05 20:32 41.47430 19.40017 35003 ft 505 kts 130°
2026-05-05 20:33 41.42934 19.47232 34986 ft 505 kts 130°
2026-05-05 20:33 41.38482 19.54359 34985 ft 505 kts 130°
2026-05-05 20:34 41.34023 19.61482 35007 ft 506 kts 130°
2026-05-05 20:34 41.29550 19.68608 35008 ft 507 kts 130°
2026-05-05 20:35 41.25025 19.75801 34986 ft 507 kts 130°
2026-05-05 20:35 41.20540 19.82914 35000 ft 506 kts 130°
2026-05-05 20:36 41.16034 19.90044 35002 ft 509 kts 130°
2026-05-05 20:36 41.11477 19.97236 34986 ft 508 kts 130°
2026-05-05 20:37 41.06953 20.04361 35003 ft 506 kts 130°
2026-05-05 20:37 41.02411 20.11497 35002 ft 509 kts 130°
2026-05-05 20:38 40.97854 20.18639 35006 ft 508 kts 130°
2026-05-05 20:38 40.93283 20.25786 35006 ft 511 kts 130°
2026-05-05 20:39 40.88615 20.33068 35003 ft 514 kts 130°
2026-05-05 20:39 40.83998 20.40253 35007 ft 515 kts 130°
2026-05-05 20:40 40.79343 20.47481 35003 ft 521 kts 130°
2026-05-05 20:40 40.74690 20.54689 34986 ft 513 kts 130°
2026-05-05 20:41 40.70104 20.61776 34986 ft 514 kts 130°
2026-05-05 20:41 40.65479 20.68906 35010 ft 513 kts 130°
2026-05-05 20:42 40.60864 20.76004 35005 ft 511 kts 130°
2026-05-05 20:42 40.56344 20.82940 35003 ft 515 kts 130°
2026-05-05 20:43 40.51635 20.90152 34985 ft 514 kts 130°
2026-05-05 20:43 40.46873 20.96984 35004 ft 513 kts 137°
2026-05-05 20:44 40.41512 21.03156 35007 ft 514 kts 139°
2026-05-05 20:44 40.36222 21.09254 35004 ft 512 kts 139°
2026-05-05 20:45 40.28234 21.18442 35008 ft 511 kts 139°
2026-05-05 20:45 40.22877 21.24582 35001 ft 511 kts 139°
2026-05-05 20:46 40.17519 21.30708 34985 ft 511 kts 139°
2026-05-05 20:46 40.12168 21.36813 35006 ft 511 kts 139°
2026-05-05 20:47 40.06832 21.42889 35004 ft 509 kts 139°
2026-05-05 20:47 40.01511 21.48934 35009 ft 510 kts 139°
2026-05-05 20:48 39.96134 21.55030 34986 ft 510 kts 139°
2026-05-05 20:48 39.90922 21.61171 35009 ft 509 kts 137°
2026-05-05 20:49 39.85736 21.67438 34999 ft 510 kts 137°
2026-05-05 20:49 39.80519 21.73689 34999 ft 511 kts 137°
2026-05-05 20:50 39.76170 21.78870 35003 ft 511 kts 137°
2026-05-05 20:50 39.69998 21.86199 35010 ft 509 kts 137°
2026-05-05 20:51 39.64780 21.92381 35005 ft 508 kts 137°
2026-05-05 20:51 39.59554 21.98559 35003 ft 506 kts 138°
2026-05-05 20:52 39.54457 22.04573 34986 ft 506 kts 138°
2026-05-05 20:52 39.49247 22.10707 35010 ft 506 kts 138°
2026-05-05 20:53 39.44045 22.16819 35003 ft 506 kts 138°
2026-05-05 20:53 39.38841 22.22919 35001 ft 506 kts 138°
2026-05-05 20:54 39.33655 22.28986 35006 ft 506 kts 138°
2026-05-05 20:54 39.29290 22.34082 35001 ft 506 kts 138°
2026-05-05 20:55 39.24130 22.40096 35004 ft 509 kts 138°
2026-05-05 20:55 39.18882 22.46200 35004 ft 509 kts 138°
2026-05-05 20:56 39.13650 22.52271 35006 ft 510 kts 138°
2026-05-05 20:56 39.08370 22.58386 35008 ft 514 kts 138°
2026-05-05 20:57 39.03086 22.64493 35006 ft 514 kts 138°
2026-05-05 20:57 38.97832 22.70553 35000 ft 512 kts 138°
2026-05-05 20:58 38.92566 22.76613 35000 ft 508 kts 138°
2026-05-05 20:58 38.87257 22.82710 35004 ft 504 kts 138°
2026-05-05 20:59 38.82005 22.88729 35007 ft 505 kts 138°
2026-05-05 20:59 38.76767 22.94720 35003 ft 505 kts 138°
2026-05-05 21:00 38.71543 23.00683 35005 ft 508 kts 138°
2026-05-05 21:00 38.66266 23.06693 35000 ft 504 kts 138°
2026-05-05 21:01 38.61038 23.12636 35009 ft 506 kts 139°
2026-05-05 21:01 38.55753 23.18631 34986 ft 507 kts 139°
2026-05-05 21:02 38.50483 23.24598 35008 ft 505 kts 139°
2026-05-05 21:02 38.45130 23.30646 35005 ft 509 kts 139°
2026-05-05 21:03 38.39850 23.36598 35003 ft 506 kts 139°
2026-05-05 21:03 38.34730 23.42359 35004 ft 506 kts 139°
2026-05-05 21:04 38.29443 23.48296 35006 ft 507 kts 139°
2026-05-05 21:04 38.24209 23.54162 34986 ft 508 kts 139°
2026-05-05 21:05 38.19044 23.59939 34986 ft 509 kts 139°
2026-05-05 21:05 38.13691 23.65914 35008 ft 511 kts 139°
2026-05-05 21:06 38.08460 23.71741 35006 ft 507 kts 139°
2026-05-05 21:06 38.03180 23.77612 35003 ft 506 kts 139°
2026-05-05 21:07 37.97854 23.83521 35006 ft 510 kts 139°
2026-05-05 21:07 37.92565 23.89378 34985 ft 505 kts 139°
2026-05-05 21:08 37.87240 23.95263 35010 ft 506 kts 139°
2026-05-05 21:08 37.81942 24.01106 35004 ft 507 kts 139°
2026-05-05 21:09 37.76664 24.06916 34985 ft 505 kts 139°
2026-05-05 21:09 37.71360 24.12743 35010 ft 506 kts 139°
2026-05-05 21:10 37.66075 24.18538 35003 ft 505 kts 139°
2026-05-05 21:10 37.60825 24.24286 34986 ft 505 kts 139°
2026-05-05 21:11 37.55518 24.30089 35006 ft 507 kts 139°
2026-05-05 21:11 37.50427 24.36232 35004 ft 505 kts 135°
2026-05-05 21:12 37.45517 24.42485 35003 ft 507 kts 135°
2026-05-05 21:12 37.40481 24.48771 34986 ft 505 kts 135°
2026-05-05 21:13 37.35505 24.54925 35007 ft 506 kts 135°
2026-05-05 21:13 37.30604 24.60969 35000 ft 505 kts 135°
2026-05-05 21:14 37.26430 24.66110 35004 ft 505 kts 136°
2026-05-05 21:14 37.21417 24.72272 35003 ft 505 kts 136°
2026-05-05 21:15 37.16473 24.78338 35003 ft 505 kts 136°
2026-05-05 21:15 37.11375 24.84580 34985 ft 505 kts 136°
2026-05-05 21:16 37.06308 24.90773 35007 ft 506 kts 136°
2026-05-05 21:16 37.01270 24.96918 35003 ft 505 kts 136°
2026-05-05 21:17 36.96274 25.02999 34986 ft 505 kts 136°
2026-05-05 21:17 36.91237 25.09119 35005 ft 505 kts 136°
2026-05-05 21:18 36.86147 25.15182 35007 ft 505 kts 136°
2026-05-05 21:18 36.81072 25.21186 35001 ft 505 kts 136°
2026-05-05 21:19 36.75999 25.27192 34986 ft 506 kts 136°
2026-05-05 21:19 36.70874 25.33254 35003 ft 508 kts 136°
2026-05-05 21:20 36.65777 25.39270 34999 ft 505 kts 136°
2026-05-05 21:20 36.60761 25.45298 35010 ft 505 kts 135°
2026-05-05 21:21 36.55743 25.51425 35002 ft 505 kts 136°
2026-05-05 21:21 36.50717 25.57525 35003 ft 505 kts 136°
2026-05-05 21:22 36.45759 25.63520 34985 ft 505 kts 136°
2026-05-05 21:22 36.40705 25.69616 35010 ft 505 kts 136°
2026-05-05 21:23 36.35660 25.75692 34985 ft 507 kts 136°
2026-05-05 21:23 36.30626 25.81741 35008 ft 505 kts 136°
2026-05-05 21:24 36.25614 25.87754 35005 ft 505 kts 136°
2026-05-05 21:24 36.20568 25.93767 35003 ft 505 kts 136°
2026-05-05 21:25 36.15452 25.99789 35000 ft 505 kts 136°
2026-05-05 21:25 36.10388 26.05746 35006 ft 505 kts 136°
2026-05-05 21:26 36.05314 26.11710 35003 ft 505 kts 136°
2026-05-05 21:26 36.00181 26.17732 35003 ft 505 kts 136°
2026-05-05 21:27 35.99992 26.17954 35003 ft 505 kts 136°
2026-05-05 21:28 35.95800 26.22865 35001 ft 505 kts 136°
2026-05-05 21:29 35.90695 26.28832 35003 ft 505 kts 136°
2026-05-05 21:29 35.85606 26.34772 34985 ft 505 kts 136°
2026-05-05 21:30 35.80508 26.40711 35006 ft 505 kts 137°
2026-05-05 21:30 35.75409 26.46638 34999 ft 505 kts 137°
2026-05-05 21:31 35.70311 26.52556 34998 ft 505 kts 137°
2026-05-05 21:31 35.65198 26.58478 34986 ft 505 kts 137°
2026-05-05 21:32 35.60036 26.64447 35010 ft 506 kts 137°
2026-05-05 21:32 35.54893 26.70382 35003 ft 505 kts 137°
2026-05-05 21:33 35.49786 26.76266 35001 ft 505 kts 137°
2026-05-05 21:33 35.44663 26.82156 34986 ft 505 kts 137°
2026-05-05 21:34 35.39527 26.88052 35006 ft 505 kts 137°
2026-05-05 21:34 35.34378 26.93950 35003 ft 505 kts 137°
2026-05-05 21:35 35.29266 26.99797 34986 ft 505 kts 137°
2026-05-05 21:35 35.24121 27.05670 35002 ft 505 kts 137°
2026-05-05 21:36 35.18979 27.11529 35000 ft 505 kts 137°
2026-05-05 21:36 35.13853 27.17359 34995 ft 505 kts 137°
2026-05-05 21:37 35.08692 27.23219 34985 ft 505 kts 137°
2026-05-05 21:37 35.03529 27.29071 35002 ft 505 kts 137°
2026-05-05 21:38 34.98377 27.34880 34998 ft 505 kts 137°
2026-05-05 21:38 34.93212 27.40696 35003 ft 505 kts 137°
2026-05-05 21:39 34.88051 27.46500 35007 ft 505 kts 137°
2026-05-05 21:39 34.82896 27.52286 35003 ft 505 kts 137°
2026-05-05 21:40 34.77728 27.58076 35001 ft 505 kts 137°
2026-05-05 21:40 34.72572 27.63843 34986 ft 505 kts 137°
2026-05-05 21:41 34.67382 27.69637 34996 ft 505 kts 137°
2026-05-05 21:41 34.62207 27.75404 35003 ft 505 kts 137°
2026-05-05 21:42 34.57023 27.81171 35000 ft 505 kts 137°
2026-05-05 21:42 34.51853 27.86912 34985 ft 505 kts 137°
2026-05-05 21:43 34.46678 27.92649 35004 ft 505 kts 137°
2026-05-05 21:43 34.42372 27.97415 35004 ft 505 kts 137°
2026-05-05 21:44 34.37172 28.03160 35004 ft 505 kts 137°
2026-05-05 21:44 34.31990 28.08876 34986 ft 505 kts 137°
2026-05-05 21:45 34.26792 28.14600 35002 ft 505 kts 138°
2026-05-05 21:45 34.21698 28.20200 34990 ft 486 kts 138°
2026-05-05 21:46 34.16678 28.25709 34985 ft 485 kts 138°
2026-05-05 21:46 34.11678 28.31186 35009 ft 486 kts 138°
2026-05-05 21:47 34.06674 28.36658 34998 ft 486 kts 138°
2026-05-05 21:47 34.01675 28.42117 35003 ft 486 kts 138°
2026-05-05 21:48 33.96654 28.47590 34986 ft 486 kts 138°
2026-05-05 21:48 33.91660 28.53025 35007 ft 486 kts 138°
2026-05-05 21:49 33.86623 28.58497 35002 ft 486 kts 138°
2026-05-05 21:49 33.81609 28.63936 34986 ft 486 kts 138°
2026-05-05 21:50 33.76633 28.69324 35000 ft 486 kts 138°
2026-05-05 21:50 33.71639 28.74726 35004 ft 486 kts 138°
2026-05-05 21:51 33.66651 28.80260 34985 ft 486 kts 137°
2026-05-05 21:51 33.61764 28.85792 35007 ft 486 kts 137°
2026-05-05 21:52 33.54419 28.94040 34986 ft 486 kts 137°
2026-05-05 21:53 33.49422 28.99628 35008 ft 486 kts 137°
2026-05-05 21:53 33.44485 29.05139 35004 ft 486 kts 137°
2026-05-05 21:54 33.39511 29.10682 35006 ft 486 kts 137°
2026-05-05 21:54 33.34570 29.16181 35003 ft 486 kts 137°
2026-05-05 21:55 33.29646 29.21652 35005 ft 486 kts 137°
2026-05-05 21:55 33.24655 29.27188 35003 ft 486 kts 137°
2026-05-05 21:56 33.19716 29.32657 35008 ft 486 kts 137°
2026-05-05 21:56 33.14764 29.38132 35003 ft 486 kts 137°
2026-05-05 21:57 33.09802 29.43609 35009 ft 486 kts 137°
2026-05-05 21:57 33.04859 29.49055 34986 ft 486 kts 137°
2026-05-05 21:58 32.99875 29.54539 35003 ft 486 kts 137°
2026-05-05 21:58 32.94940 29.59960 35007 ft 486 kts 137°
2026-05-05 21:59 32.89964 29.65418 35004 ft 486 kts 137°
2026-05-05 21:59 32.84962 29.70895 34985 ft 486 kts 137°
2026-05-05 22:00 32.79992 29.76329 35008 ft 486 kts 137°
2026-05-05 22:00 32.75045 29.81728 35004 ft 486 kts 137°
2026-05-05 22:01 32.70081 29.87137 34986 ft 486 kts 137°
2026-05-05 22:01 32.65080 29.92579 35002 ft 486 kts 137°
2026-05-05 22:02 32.60107 29.97981 35005 ft 486 kts 137°
2026-05-05 22:02 32.55134 30.03375 35003 ft 486 kts 137°
2026-05-05 22:03 32.50135 30.08790 34985 ft 486 kts 137°
2026-05-05 22:03 32.45146 30.14178 35009 ft 486 kts 138°
2026-05-05 22:04 32.40281 30.19416 34987 ft 486 kts 138°
2026-05-05 22:04 32.35268 30.24808 35007 ft 486 kts 138°
2026-05-05 22:05 32.30284 30.30162 35004 ft 486 kts 138°
2026-05-05 22:05 32.25265 30.35544 35000 ft 486 kts 138°
2026-05-05 22:06 32.20295 30.40865 35003 ft 486 kts 138°
2026-05-05 22:06 32.15287 30.46219 35001 ft 486 kts 138°
2026-05-05 22:07 32.10305 30.51537 35003 ft 486 kts 138°
2026-05-05 22:07 32.05334 30.56835 35004 ft 485 kts 138°
2026-05-05 22:08 32.00334 30.62156 35007 ft 486 kts 138°
2026-05-05 22:08 31.95347 30.67455 34998 ft 486 kts 138°
2026-05-05 22:09 31.90352 30.72753 35003 ft 486 kts 138°
2026-05-05 22:09 31.85321 30.78082 35004 ft 486 kts 138°
2026-05-05 22:10 31.80314 30.83379 34702 ft 482 kts 138°
2026-05-05 22:10 31.77848 30.85984 33892 ft 485 kts 138°
2026-05-05 22:10 31.75303 30.88670 32777 ft 490 kts 138°
2026-05-05 22:10 31.72773 30.91339 31722 ft 493 kts 138°
2026-05-05 22:11 31.70233 30.94016 30981 ft 489 kts 138°
2026-05-05 22:11 31.67707 30.96677 30278 ft 483 kts 138°
2026-05-05 22:11 31.65250 30.99263 29559 ft 478 kts 138°
2026-05-05 22:11 31.62771 31.01870 28871 ft 472 kts 138°
2026-05-05 22:12 31.60330 31.04436 28113 ft 469 kts 138°
2026-05-05 22:12 31.57904 31.06983 27497 ft 462 kts 138°
2026-05-05 22:12 31.55557 31.09445 26964 ft 454 kts 138°
2026-05-05 22:12 31.53221 31.11896 26362 ft 447 kts 138°
2026-05-05 22:13 31.50917 31.14329 25765 ft 441 kts 138°
2026-05-05 22:13 31.48703 31.16690 25175 ft 436 kts 138°
2026-05-05 22:13 31.46423 31.19122 24562 ft 430 kts 138°
2026-05-05 22:13 31.44212 31.21479 23948 ft 425 kts 138°
2026-05-05 22:14 31.42019 31.23740 23365 ft 419 kts 142°
2026-05-05 22:14 31.41025 31.24579 23112 ft 417 kts 147°
2026-05-06 00:31 31.41013 31.24588 23108 ft 417 kts 147°
2026-05-06 00:32 31.41003 31.24596 23104 ft 417 kts 147°